World > North America > United States > Michigan > Morenci  

Morenci, MI Hourly Weather Updates

Feedback E-mail the Weather

Quick Clicks

Morenci, MI Weather Maps

°F °C°F °C
Morenci Weather Map
UTC Time: 4/22/2024, 23:46
Your Time:

Morenci, MI Regional Weather

Expires:202404230000;;209084
ASUS43 KDTX 222310
RWRMI 
MICHIGAN HOURLY REGIONAL WEATHER ROUNDUP
NATIONAL WEATHER SERVICE DETROIT/PONTIAC MI
700 PM EDT MON APR 22 2024

NOTE: "FAIR" INDICATES FEW OR NO CLOUDS BELOW 12,000 FEET WITH NO
SIGNIFICANT WEATHER AND/OR OBSTRUCTION TO VISIBILITY.


MIZ047>049-052>055-059>063-066>070-074>076-081>083-230000-
SOUTHEAST LOWER MICHIGAN
  
CITY           SKY/WX    TMP DP  RH WIND       PRES   REMARKS
ADRIAN         PTSUNNY   61  30  31 SW15G25   30.01F TC  16           
ALMA           PTSUNNY   61   6  11 SW12G22   29.92F TC  16           
ANN ARBOR      PTSUNNY   60  30  32 SW13G23   29.98F TC  16           
BAD AXE        PTSUNNY   61  25  25 SW15G24   29.91F TC  16           
CARO           PTSUNNY   61  28  28 S16       29.91F TC  16           
DETROIT CITY   MOSUNNY   64  29  26 SW18      29.98F TC  18           
DETROIT        PTSUNNY   61  29  29 SW18G29   29.99F TC  16           
FLINT          PTSUNNY   61  30  31 SW13G23   29.95F TC  16           
GROSSE ILE     MOSUNNY   61  10  13 SW14      29.99F TC  16           
HILLSDALE      PTSUNNY   59   4  10 SW10G16   29.99F TC  15           
HOWELL         PTSUNNY   60  28  29 S10G20    29.96F TC  16           

CITY           SKY/WX    TMP DP  RH WIND       PRES   REMARKS
JACKSON        PTSUNNY   60  30  32 S12G22    29.97F TC  16           
LAMBERTVILLE   MOSUNNY   62  23  22 SW13G22   30.01F TC  17           
LANSING        PTSUNNY   62  29  28 S14G26    29.94F TC  17           
LAPEER         MOSUNNY   62  27  26 W18G24    29.95F TC  17           
MASON          PTSUNNY   62  23  23 SW6       29.95F TC  16           
MONROE         MOSUNNY   61  28  28 SW14G20   30.00F TC  16           
MT. CLEMENS    PTSUNNY   63  28  27 SW14      29.94F TC  17           
PONTIAC        CLOUDY    61  29  29 SW13G18   29.96F TC  16           
PORT HOPE        N/A     63  29  27 SW8G23    29.89F TC  17           
PORT HURON     MOSUNNY   59  28  31 S17       29.97F TC  15           
TRI CITIES     PTSUNNY   62  24  23 SW16G28   29.91F TC  17           
MIDLAND        PTSUNNY   63  17  17 SW13G24   29.89F TC  17           
TROY           MOSUNNY   63  27  25 SW12G24   29.99F TC  17           
SAGINAW HB     PTSUNNY   63  27  25 SW16G24   29.90F TC  17           
$$

SKY/WX - Weather  TMP - Temperature  DP - Dew Point  RH - Humidity
WIND - Wind Direction/Speed PRES - Barometric Pressure VSB - Visibility
WCI - Wind Chill Index E13G22 Wind - East Wind 13 mph/Gusts of 22 mph

Trending Headlines

Trending Entertainment Headlines

Morenci Radar Loop

Use the map search tool if you want to place a location marker on the radar map...

Morenci Quick Facts

National Two Day Weather Forecast


E-mail the Morenci Weather Forecast

Voice your opinion or tell us about page issues...